Wind_Speed
20 20 19 20 21 20 20 19 17 14 12 11 10 10 10 9 9 10 10 10 10 10 11 10 10 10 10 9 9 9 9 9 8 8 8 10 11 12 13 14 15 14 14 13 11 11 11 12 12 13 15 14 14 15 14 14 14 15 15 15 16 16 16 17 18 18 18 18 19 20 20 21 21 21 21 22 21 20 20 18 14 12 15 17 18
23 21 20 20 21 21 20 19 18 15 13 12 12 11 10 10 9 9 9 10 10 10 10 9 10 10 10 9 9 9 9 8 7 7 8 10 11 12 13 14 15 15 14 13 12 11 11 12 12 14 16 15 15 14 14 14 15 15 15 15 15 14 15 16 17 18 17 17 18 18 19 20 20 20 21 22 21 19 19 18 15 13 15 18 18
23 22 21 20 21 21 21 20 18 16 14 13 12 12 11 11 10 9 9 9 9 8 8 8 8 8 8 9 9 9 8 7 7 7 8 10 12 13 13 14 15 16 15 14 13 12 12 13 14 16 17 16 15 15 15 15 15 15 15 14 13 13 13 15 16 17 17 16 17 17 16 18 19 19 20 21 20 19 18 18 16 15 16 17 17
22 22 22 20 21 20 20 20 18 16 15 14 13 13 12 12 11 10 10 9 9 8 7 7 7 7 8 8 8 8 8 8 8 8 10 13 15 14 14 14 15 16 17 16 14 13 13 14 15 17 17 16 15 15 15 15 15 14 13 13 12 12 13 13 14 16 17 17 18 16 13 14 17 18 19 20 19 18 17 17 16 16 16 15 16
22 22 22 20 21 20 20 19 19 16 15 15 14 14 13 13 12 11 11 10 9 8 7 7 7 8 8 8 8 9 9 9 10 12 16 18 17 16 16 16 15 15 17 18 16 14 14 14 16 17 17 17 16 15 15 14 13 12 12 12 11 11 12 12 14 16 17 18 19 14 9 10 14 16 18 18 18 17 17 17 17 17 16 15 16
22 22 22 21 21 20 20 20 19 16 15 15 14 14 14 13 12 12 11 10 9 8 8 7 8 8 8 9 9 10 10 12 14 18 21 20 17 16 15 16 15 14 15 17 17 16 16 15 17 18 18 17 15 15 14 13 11 11 11 11 11 12 12 12 14 15 16 19 17 11 9 9 10 14 16 16 17 16 16 16 16 16 16 15 14
23 22 22 21 21 21 20 20 19 17 16 15 15 14 14 14 12 12 11 10 9 9 9 8 7 7 8 10 11 12 13 15 18 22 22 19 18 16 15 15 15 14 14 16 18 17 17 17 18 19 18 16 15 14 13 12 11 11 11 11 11 12 11 12 13 14 16 16 12 9 9 8 8 12 14 14 15 15 14 14 15 14 13 13 12
25 23 22 21 20 20 20 20 19 18 16 15 15 15 15 13 12 12 11 11 10 10 9 9 8 8 10 12 13 14 15 16 19 22 22 19 18 17 15 15 14 13 13 15 18 18 17 18 19 19 18 16 15 13 12 11 11 10 10 10 11 11 11 11 12 13 17 13 9 9 8 8 8 10 13 12 13 13 13 13 13 13 12 11 11
27 24 22 21 19 19 19 20 19 18 17 16 16 15 15 14 13 12 11 11 10 10 9 8 9 9 11 12 13 14 15 16 19 23 22 19 17 16 15 14 13 13 13 15 18 19 18 19 20 19 18 16 15 13 12 11 10 10 9 9 10 10 10 10 11 13 14 10 9 8 8 8 7 9 11 11 12 12 12 11 10 11 10 10 10
27 24 21 21 19 19 19 19 18 18 17 17 16 15 15 14 13 12 12 11 11 10 9 9 10 10 11 12 13 13 15 16 19 23 22 18 15 14 15 13 12 13 14 16 19 19 19 20 21 19 18 16 14 12 12 11 10 9 8 9 9 9 9 8 10 13 10 7 8 9 10 9 7 9 10 10 11 11 10 9 8 8 9 9 9
26 25 22 21 20 19 18 18 18 18 17 16 16 16 15 14 13 13 13 12 11 11 9 9 10 11 12 12 13 13 15 16 18 21 22 19 16 14 14 13 12 14 15 17 20 20 20 21 21 19 18 16 14 12 12 11 10 9 8 8 8 8 8 7 10 10 7 7 7 8 11 10 8 8 9 10 10 10 9 9 8 8 9 9 10
28 26 24 23 20 19 19 18 18 18 17 16 17 16 15 14 13 13 13 13 12 11 10 10 11 11 12 12 13 13 15 15 16 19 21 20 17 14 13 14 14 15 17 20 21 20 21 22 20 19 17 15 14 12 12 11 10 9 8 7 7 7 7 8 10 7 6 7 7 8 8 7 7 8 9 10 9 8 9 9 9 9 9 9 10
29 28 26 24 22 20 19 19 19 18 17 17 17 16 15 14 14 14 14 14 14 13 12 11 11 11 11 12 13 14 15 14 15 18 21 19 15 13 14 15 15 16 19 22 21 21 21 22 20 18 16 15 13 12 11 10 9 8 7 7 6 7 6 9 10 5 6 7 7 8 6 6 7 8 9 9 8 8 8 8 8 9 10 10 11
30 28 26 24 22 21 20 20 19 19 18 17 17 16 16 15 14 15 14 14 13 13 12 11 11 11 11 12 13 14 14 13 14 19 20 17 14 13 15 16 16 17 20 22 21 21 22 21 20 18 16 14 13 11 10 9 8 7 7 7 6 7 7 9 8 4 6 6 7 7 5 6 7 8 9 7 7 7 8 8 8 9 11 12 13
29 28 26 24 23 22 21 20 19 19 19 18 18 17 17 16 15 15 14 14 13 12 12 11 11 11 11 11 12 14 14 14 17 20 18 15 14 14 15 16 16 18 20 21 21 22 22 21 19 18 16 13 12 10 9 8 7 7 7 7 7 7 7 7 5 4 5 6 7 5 4 6 7 8 7 6 6 6 8 8 8 9 11 13 14
29 28 27 26 24 23 22 21 20 19 19 19 18 18 18 17 16 16 14 14 13 11 12 11 11 11 11 11 11 13 14 15 18 19 16 14 14 15 16 16 16 19 20 21 22 22 21 20 19 17 15 13 11 10 9 8 7 7 7 7 7 6 7 6 4 4 5 5 6 4 4 6 7 7 7 6 5 6 9 9 8 9 11 14 16
30 29 28 27 25 25 24 23 22 21 20 19 19 19 18 17 16 15 15 14 13 12 12 12 11 11 11 11 11 13 14 16 18 18 17 15 15 16 17 17 18 20 21 21 22 21 20 18 18 16 14 12 10 9 8 8 7 7 7 6 6 6 6 5 4 4 4 6 5 3 4 5 6 6 6 6 5 6 9 10 10 10 12 15 15
30 31 29 26 25 26 25 25 24 23 21 20 19 19 18 17 16 15 15 14 13 12 12 12 11 12 11 11 11 12 14 17 18 17 17 16 16 18 18 18 20 21 21 21 21 20 19 17 16 15 14 12 10 9 8 7 7 6 5 5 5 5 4 5 4 4 5 5 4 3 4 5 5 5 5 4 4 6 9 10 11 12 13 14 13
28 29 28 25 23 23 23 24 25 24 22 22 21 20 19 18 16 16 15 14 14 13 12 11 12 12 11 11 11 12 14 17 17 16 17 16 16 18 18 20 21 22 21 21 21 20 18 17 15 14 13 11 10 8 7 6 6 5 4 5 4 3 4 4 4 3 2 2 2 2 4 5 5 5 4 3 3 7 9 11 13 13 13 12 11
28 28 28 24 20 21 21 20 23 22 20 22 22 20 20 19 17 16 15 15 14 13 12 12 12 11 11 12 12 13 14 16 16 15 16 16 16 17 19 20 21 22 22 21 21 20 18 17 15 13 12 10 9 7 6 6 5 4 4 4 3 3 3 3 3 1 1 2 2 2 3 4 4 3 3 2 6 8 10 12 14 13 12 10 10
30 30 29 24 19 19 20 18 18 19 18 19 21 19 20 20 18 17 16 15 14 14 13 12 12 11 12 12 13 14 14 15 15 13 14 15 16 17 19 21 22 22 22 22 21 20 18 16 15 13 11 10 8 7 6 6 5 4 4 3 3 3 2 2 2 3 3 4 4 3 3 3 2 1 1 4 8 9 11 13 12 11 10 10 10
33 33 31 27 22 20 19 18 17 19 18 17 17 17 19 20 18 17 17 16 15 14 13 12 11 11 13 13 13 13 12 13 13 12 12 14 15 17 20 22 22 22 22 22 21 20 18 16 15 13 11 9 7 6 5 5 4 4 3 3 3 2 1 1 3 4 4 4 4 3 2 1 1 1 3 7 10 11 11 10 9 9 9 9 9
35 35 33 30 28 24 20 18 18 20 19 16 15 16 18 19 18 18 17 16 16 14 13 12 11 11 13 15 14 12 11 12 13 12 12 14 15 17 21 22 22 22 22 22 21 20 18 16 14 13 11 9 7 5 5 4 3 3 3 2 2 1 1 3 5 4 4 4 4 3 2 1 3 4 6 9 9 9 8 7 7 8 9 9 9
36 36 34 33 32 28 23 21 20 20 19 17 15 15 18 19 17 18 17 17 16 14 13 12 12 11 13 16 14 12 12 11 12 13 13 14 15 17 20 23 23 22 22 21 21 19 18 16 15 13 10 9 7 7 6 5 4 4 2 2 1 1 2 4 5 5 4 5 4 3 2 2 5 6 7 7 6 6 6 6 7 8 9 9 8
34 34 34 34 33 29 26 23 22 21 19 18 17 16 18 18 16 17 17 17 16 15 15 14 14 13 13 16 16 15 13 10 12 13 12 12 14 16 17 21 22 21 21 19 19 19 17 16 15 12 10 9 9 9 8 6 4 4 3 2 1 0 3 6 5 5 4 3 2 3 3 4 6 6 6 5 5 5 5 6 7 8 8 7 7
29 31 35 35 32 30 27 23 23 24 21 19 17 15 18 19 16 17 18 17 16 16 16 16 15 13 14 17 17 17 15 12 11 12 11 11 13 15 14 17 19 18 19 16 15 18 16 14 13 11 10 10 10 9 8 6 4 4 3 2 2 2 5 6 5 5 4 3 3 4 4 6 6 6 5 5 5 5 5 7 7 7 7 6 6
21 25 33 35 31 29 28 25 24 25 25 21 17 16 17 18 17 17 18 16 16 17 16 17 16 15 16 19 18 18 17 14 13 12 13 13 12 13 13 15 17 17 18 16 14 17 16 14 13 12 11 10 10 9 7 5 4 3 2 2 3 5 6 6 5 4 3 4 5 6 5 5 5 4 5 4 4 5 6 7 7 6 5 5 6
20 25 32 34 32 30 29 27 25 24 26 24 20 17 16 17 17 18 18 17 17 17 17 18 16 15 18 20 19 19 18 16 15 14 14 14 13 14 12 13 17 18 18 17 15 16 16 14 14 12 11 11 10 9 7 5 3 3 3 4 5 6 7 6 5 4 4 4 5 7 6 5 3 3 3 4 5 6 6 6 5 5 4 5 7
26 30 34 34 31 30 30 29 26 24 25 26 22 18 16 17 18 18 17 18 18 16 19 18 14 15 18 19 19 19 18 17 15 15 15 15 14 14 13 12 16 18 18 18 16 18 17 15 14 12 12 11 10 9 7 5 4 4 5 5 5 6 6 5 5 5 3 3 5 6 6 4 3 3 3 4 5 6 5 4 4 4 5 7 8
27 30 34 33 30 29 30 30 27 24 26 27 24 18 17 18 19 18 17 18 17 16 20 17 12 16 19 19 20 19 18 17 15 15 15 15 14 14 14 13 15 17 18 19 19 19 17 15 13 12 11 11 10 9 7 5 5 6 6 6 5 5 5 5 5 4 3 4 7 6 5 3 3 3 3 4 5 5 4 4 3 4 7 8 9
27 28 31 29 27 27 29 31 27 23 24 26 26 20 17 18 18 17 16 18 17 17 19 15 13 17 19 20 20 19 18 17 16 15 15 15 14 14 14 15 15 17 18 19 20 18 16 14 13 13 12 11 10 9 7 6 7 7 8 7 5 5 5 4 4 4 3 3 6 6 4 3 3 3 3 3 4 4 3 3 4 6 8 8 9
28 29 29 25 26 28 28 31 30 28 25 22 23 21 18 17 17 17 16 16 17 18 17 13 15 19 20 20 21 20 20 18 17 16 15 14 14 14 15 16 17 19 19 18 19 17 15 14 14 14 13 12 11 10 9 9 9 8 9 7 5 5 5 3 3 3 3 2 4 6 4 3 2 2 2 3 2 3 3 3 4 6 7 8 9
29 30 27 23 26 28 27 29 31 33 30 22 18 18 17 17 16 17 16 16 17 19 16 12 15 20 20 21 22 21 21 19 18 16 16 15 14 15 15 16 17 18 18 17 18 17 15 15 14 14 13 12 11 11 10 10 10 10 9 7 6 5 4 3 1 2 3 3 1 2 2 3 2 1 2 2 2 2 2 3 4 5 6 7 9
30 29 27 24 27 29 27 28 29 31 34 27 19 16 18 17 16 16 16 16 18 18 15 12 16 21 21 22 23 23 21 20 19 16 15 14 15 15 15 16 15 15 16 15 15 15 15 14 14 13 13 12 12 12 11 10 11 11 9 8 8 6 4 3 1 3 4 3 1 1 2 1 1 1 2 2 2 2 2 3 3 4 5 6 7
31 29 27 27 28 30 29 27 28 29 32 31 24 19 18 18 16 16 16 16 17 16 15 14 18 21 22 24 24 23 22 20 19 16 13 13 13 14 15 14 13 12 13 12 13 14 14 14 13 13 14 13 12 12 11 11 12 11 10 9 7 5 4 4 2 2 4 5 2 2 4 4 3 2 1 2 3 2 2 3 3 4 4 5 6
31 30 29 29 27 31 31 27 27 29 28 29 28 22 18 18 17 16 16 17 16 14 15 16 20 22 23 25 24 21 19 17 17 16 14 13 12 13 14 13 13 12 13 13 13 14 14 14 15 14 14 12 12 12 12 12 12 11 10 8 6 4 3 4 3 2 3 4 2 2 4 4 5 4 3 3 3 2 2 2 3 3 4 5 6
31 32 30 30 30 32 33 27 26 29 27 24 25 24 20 18 17 17 16 17 15 13 14 15 20 24 24 26 25 21 18 16 17 16 15 14 13 13 14 14 14 14 15 15 14 14 15 16 16 15 14 12 11 12 12 13 12 11 10 7 6 4 4 5 4 4 5 5 4 3 4 4 4 4 5 5 3 2 1 2 2 3 4 5 6
30 32 29 29 30 32 33 28 24 26 26 24 22 21 21 19 17 17 17 17 15 14 14 14 18 24 25 26 27 23 19 17 17 17 15 15 14 14 16 15 15 16 16 16 15 15 16 16 16 16 14 12 10 12 12 12 13 11 9 8 6 5 5 6 5 5 6 6 5 3 4 5 5 5 5 5 4 2 2 2 3 4 4 5 7
24 27 27 23 23 27 32 30 26 25 25 25 22 18 19 19 18 18 17 17 16 15 16 15 16 21 25 27 28 26 20 18 18 17 16 15 15 16 17 16 16 17 16 15 15 16 17 16 16 16 15 13 11 13 12 12 13 10 9 10 6 5 6 7 6 7 7 7 6 4 5 5 6 6 5 6 5 3 2 1 2 3 5 5 6
22 20 22 21 21 26 32 32 29 25 25 26 23 19 17 18 19 19 19 18 17 16 17 18 17 19 25 28 28 28 23 20 20 18 17 16 16 17 18 16 16 16 16 16 16 17 17 16 15 16 15 15 13 13 13 12 13 11 10 11 8 7 8 8 8 8 9 9 6 5 5 6 6 6 6 5 5 4 3 1 1 2 5 6 6
22 20 21 22 24 28 31 33 31 27 27 29 26 23 20 19 20 20 20 19 18 17 17 19 18 17 24 27 27 28 24 22 21 18 18 17 16 18 18 17 16 16 16 17 17 17 16 15 15 15 15 15 14 13 13 13 13 11 10 10 9 9 9 9 10 10 10 9 6 6 6 7 7 6 6 5 5 4 3 2 1 2 3 5 6
25 25 25 23 24 26 26 29 32 30 28 30 30 26 22 20 21 20 19 18 18 18 17 18 18 17 23 27 27 27 24 23 23 19 18 18 17 18 17 17 16 15 16 17 18 17 15 15 15 16 14 14 13 12 13 13 13 10 8 8 8 9 10 11 12 12 11 9 7 8 8 8 7 7 6 6 5 5 3 3 3 3 2 2 3
28 28 26 24 25 25 26 28 32 34 30 29 30 27 22 21 23 21 19 18 18 17 16 18 18 18 22 27 28 26 23 25 24 20 19 18 18 18 17 17 16 16 17 18 18 17 16 15 15 15 13 11 11 12 12 12 11 9 8 8 7 7 10 12 13 13 11 10 10 10 10 10 8 8 8 6 6 5 4 5 5 4 3 2 2
29 28 23 22 25 27 29 30 32 35 33 30 28 25 22 22 24 25 21 18 16 16 17 18 19 18 21 27 29 25 23 25 24 21 19 18 18 18 18 17 17 18 17 17 18 17 16 16 15 15 13 12 12 14 13 12 11 11 10 8 7 6 9 9 9 10 10 10 11 11 11 11 10 10 9 7 7 7 7 7 6 5 4 3 3
30 30 26 22 25 27 28 30 31 33 33 30 27 24 23 23 23 24 22 19 17 18 20 20 19 18 21 28 30 24 22 24 24 22 20 18 19 19 19 18 18 18 18 18 18 17 17 17 16 15 13 13 14 14 13 13 14 13 10 8 6 7 7 6 5 6 8 9 10 10 12 12 11 11 10 8 9 10 10 9 7 6 6 5 5
30 32 31 26 26 27 26 27 27 30 31 30 28 26 26 26 26 26 23 21 21 21 22 23 21 18 20 27 29 23 21 23 24 23 20 18 19 19 19 18 18 18 18 18 18 18 18 16 15 14 13 13 13 12 12 14 16 15 14 13 11 7 3 5 5 5 6 8 9 11 12 13 12 12 10 9 10 10 10 9 8 8 8 7 6
29 30 30 27 27 30 29 27 26 28 31 31 29 28 29 29 29 30 25 23 23 20 21 22 20 18 19 25 28 24 21 22 24 24 22 19 19 19 18 18 18 17 17 18 18 19 18 16 15 13 13 13 13 13 13 14 16 17 18 18 17 13 8 7 6 5 5 7 9 11 13 13 13 12 11 10 11 11 11 9 8 9 10 9 8
29 29 29 28 29 31 31 32 30 30 31 31 30 30 33 33 30 29 24 23 25 22 21 22 20 19 20 24 27 25 21 21 23 24 22 20 19 19 18 18 17 17 17 17 19 19 17 16 16 14 13 14 14 14 13 14 15 17 18 18 18 18 17 15 11 8 7 7 9 11 12 14 15 15 13 12 12 12 13 11 8 9 10 11 10
30 30 32 32 30 29 32 34 32 30 30 31 31 33 35 35 32 28 23 22 25 24 22 22 21 20 21 23 24 23 22 21 22 24 23 21 20 19 19 18 16 17 17 17 18 18 17 17 16 16 15 15 15 13 12 14 14 15 17 17 17 18 18 16 13 11 10 9 8 10 12 14 16 18 17 15 14 13 14 14 10 9 10 12 12
32 31 33 33 27 27 33 34 32 31 30 30 31 33 37 36 33 31 25 21 23 24 22 22 23 23 23 24 22 21 23 23 21 24 23 21 20 20 19 18 17 17 17 17 18 18 18 17 16 16 16 16 15 13 12 13 13 14 16 16 16 17 15 13 12 12 11 10 9 8 12 14 15 17 18 18 16 14 13 15 13 10 11 12 12
33 33 33 31 25 26 31 34 34 31 28 29 29 32 39 37 32 32 28 21 23 26 25 24 25 25 25 25 23 22 24 23 22 24 24 21 20 21 19 18 18 17 18 19 20 19 18 17 16 15 15 15 14 13 12 12 12 14 16 17 16 15 14 12 11 11 10 10 9 9 10 13 13 14 16 18 16 14 13 15 14 12 12 12 12
Wind_Direction
179 184 178 164 165 168 167 168 172 175 174 174 174 182 193 193 188 180 176 176 177 174 173 175 175 178 178 180 181 183 185 188 181 174 171 168 170 170 171 174 173 168 164 155 152 156 150 149 149 147 140 133 125 118 115 112 108 106 104 102 97 91 86 81 76 72 70 68 66 63 62 61 60 57 54 49 48 47 48 59 64 49 46 49 47
171 179 177 164 163 166 166 168 171 173 173 172 174 182 193 196 193 185 183 182 179 177 178 179 180 183 185 188 191 196 200 198 189 182 179 177 179 177 176 176 176 175 172 165 162 161 153 150 145 146 141 134 129 122 117 114 109 106 103 98 93 88 84 80 76 71 68 67 67 62 58 58 57 57 54 50 49 51 50 53 60 55 44 44 43
167 172 172 164 162 165 165 167 170 172 171 171 173 179 192 196 194 190 191 187 183 182 184 187 190 193 196 199 199 202 204 200 191 181 177 176 175 173 172 173 176 178 177 174 172 167 158 152 143 143 141 135 131 124 121 117 111 106 101 96 90 86 83 80 75 70 65 64 67 60 54 54 53 54 51 49 49 50 50 48 50 49 42 41 40
168 168 167 164 162 164 165 166 170 171 170 171 173 179 190 195 193 192 193 189 187 189 192 197 202 207 208 210 206 202 199 191 182 169 160 154 151 150 153 160 168 177 180 178 176 170 161 151 145 145 141 137 133 130 127 121 115 108 102 96 88 85 82 78 73 67 61 58 62 59 53 49 47 50 46 44 46 47 47 44 43 42 40 40 41
171 168 165 163 164 166 165 167 169 171 170 172 174 180 190 194 193 192 192 189 189 191 194 202 207 211 209 209 205 200 191 178 166 154 145 140 139 138 141 145 153 170 179 180 177 167 161 152 148 148 144 140 137 136 132 125 116 107 103 96 89 85 80 76 71 65 60 59 65 66 63 50 42 45 40 39 41 43 41 39 38 37 37 38 40
173 171 167 162 164 167 166 167 169 172 172 173 175 181 191 193 193 192 193 190 189 189 190 196 199 204 203 196 188 186 176 166 158 148 142 139 140 141 144 147 153 165 171 179 180 167 160 154 151 152 147 144 141 139 134 125 114 108 102 94 89 84 79 75 69 62 59 60 65 71 68 56 46 41 36 38 38 38 36 34 34 33 36 37 40
176 173 169 165 165 167 167 168 170 174 174 174 176 183 192 192 192 192 192 188 185 184 181 179 176 183 179 169 165 163 159 159 157 148 143 142 145 148 153 157 161 167 166 173 180 170 160 156 155 155 150 146 145 142 135 123 116 110 101 93 87 82 78 73 67 59 60 62 64 68 64 61 56 39 35 40 37 37 33 31 30 28 34 37 43
180 175 171 169 169 167 166 169 170 175 176 176 177 185 192 191 191 192 190 184 182 176 170 161 151 153 153 152 151 147 146 153 157 151 146 146 151 153 158 163 164 169 169 170 176 171 161 158 158 156 152 149 149 143 133 125 120 111 102 94 86 81 76 70 67 58 59 65 68 64 62 60 53 38 37 43 40 37 32 28 26 24 31 36 44
180 177 173 171 172 169 167 169 171 175 177 178 179 185 191 190 191 193 187 180 178 171 165 152 140 141 145 145 143 140 141 147 155 153 150 150 153 154 162 165 165 172 175 170 172 170 164 160 159 157 154 152 150 143 133 128 123 112 103 96 87 80 74 69 64 58 60 66 65 62 72 73 51 36 37 44 41 33 32 30 23 22 28 34 42
178 178 175 174 174 172 170 169 172 177 178 179 180 186 189 189 192 192 185 179 176 170 163 149 140 142 141 140 139 140 140 143 151 156 155 151 154 161 167 168 171 178 176 169 170 170 166 162 160 158 155 154 151 143 136 132 127 115 106 97 87 77 71 69 59 59 69 66 59 54 62 70 54 38 37 42 37 25 29 32 28 29 33 36 37
177 179 178 178 176 175 174 171 174 178 178 180 181 187 189 188 191 191 185 178 176 172 164 151 144 141 137 138 141 141 141 144 150 159 160 155 165 174 171 174 179 176 168 166 169 170 167 163 161 159 157 156 152 146 141 137 130 120 111 97 83 75 68 68 62 61 76 64 56 48 42 50 49 40 37 39 35 27 30 33 36 36 37 36 31
179 179 180 181 178 179 178 175 178 179 180 181 182 186 190 189 189 190 185 180 179 176 167 153 143 139 138 139 144 144 143 146 149 159 162 161 173 176 169 172 171 164 161 165 169 170 167 163 161 161 160 158 154 150 145 140 133 124 110 94 81 78 69 69 72 69 77 63 55 54 42 43 42 39 42 43 37 30 30 31 34 33 34 30 22
180 180 182 182 180 183 182 181 182 182 182 183 184 186 190 190 188 190 188 183 181 181 172 152 141 139 140 142 145 147 146 148 147 152 157 160 170 170 165 166 164 160 162 166 169 168 166 163 163 162 162 161 157 154 148 141 132 121 105 96 85 85 79 75 82 76 73 69 55 54 49 46 41 42 47 42 30 26 26 27 29 30 29 21 11
182 181 183 183 182 184 185 186 186 186 185 185 186 186 191 191 190 192 192 186 181 183 172 152 143 141 143 144 147 149 151 152 147 149 152 158 167 168 166 165 163 162 164 166 167 167 166 165 165 164 165 163 160 158 150 140 127 117 106 104 99 94 82 73 81 79 73 72 60 53 47 51 44 43 47 36 26 29 29 25 29 31 25 15 7
185 182 183 185 184 184 185 187 191 191 188 188 187 188 193 193 192 193 192 186 182 182 168 156 149 144 147 147 148 152 154 151 149 152 153 160 171 170 165 163 163 163 165 165 166 167 167 167 166 167 166 164 162 158 150 140 129 122 119 115 110 98 83 79 80 70 75 71 63 56 39 50 48 45 48 39 34 35 25 20 27 26 17 8 2
186 184 185 186 184 184 185 188 193 196 194 191 189 190 195 194 194 194 192 185 183 184 168 161 155 150 151 149 151 152 154 151 151 154 154 166 176 172 164 161 162 164 165 164 167 168 168 169 169 169 168 166 163 157 151 142 134 132 130 124 115 94 82 91 86 59 77 76 65 43 26 48 51 52 49 37 38 30 18 15 16 12 5 0 356
188 186 187 187 184 184 185 188 193 197 197 195 192 193 196 197 195 193 191 185 184 185 174 167 161 157 154 152 154 153 156 153 153 157 161 173 177 172 167 162 163 164 165 165 168 170 171 172 170 171 170 168 164 158 152 144 141 138 133 122 107 88 69 76 81 68 78 74 67 40 36 57 54 56 50 36 36 19 11 9 3 357 355 355 353
193 189 186 187 185 185 186 188 193 196 198 197 197 198 198 198 196 194 191 186 184 184 178 175 170 162 157 157 155 154 158 157 157 161 168 177 175 172 169 164 165 165 166 168 171 173 175 175 173 173 171 170 165 159 154 149 147 138 130 114 93 79 47 50 72 76 74 75 75 52 53 67 59 59 53 42 28 1 0 358 353 349 350 353 356
199 195 188 187 184 184 187 190 193 194 196 196 198 199 198 198 197 195 192 190 186 184 183 182 178 166 162 162 158 157 159 162 164 166 170 177 176 172 170 168 168 168 170 172 174 177 178 178 176 174 174 172 167 160 156 154 148 140 127 108 89 67 38 49 81 81 63 75 58 41 63 70 62 56 59 54 1 347 348 347 346 346 351 359 2
200 200 193 186 182 185 187 190 192 189 190 194 196 195 195 196 197 196 193 193 189 187 187 185 181 171 170 167 161 159 160 168 171 173 172 174 177 172 171 172 172 171 173 176 176 179 181 180 178 175 175 173 169 164 158 158 152 145 129 111 87 57 36 59 94 22 0 63 54 66 77 66 61 71 90 26 343 341 340 340 344 347 357 6 7
198 200 195 185 179 185 187 188 188 186 185 189 192 189 193 194 193 194 193 193 190 190 189 185 184 179 179 174 167 163 162 172 175 179 175 174 180 174 173 176 176 175 176 179 180 181 183 183 181 177 177 175 173 168 163 164 158 153 136 112 76 56 26 71 68 358 21 65 72 84 75 51 55 103 208 328 337 335 334 338 345 352 2 10 10
198 199 196 188 182 185 187 186 185 186 185 186 188 185 191 191 188 192 191 191 192 192 187 185 191 188 185 180 175 169 167 173 173 179 175 176 184 176 176 178 179 179 178 181 182 183 184 185 186 182 180 178 173 170 175 176 165 154 128 97 74 67 340 77 72 36 37 57 77 76 41 31 340 290 300 325 331 329 332 341 353 0 6 10 11
199 198 196 191 189 190 188 186 186 185 184 184 184 185 191 187 184 193 190 190 195 192 186 188 196 194 188 186 184 175 170 175 174 176 174 179 186 180 179 181 182 181 180 184 185 185 186 187 189 187 182 176 171 176 188 190 170 137 110 94 86 108 12 68 77 64 47 52 66 40 16 345 314 313 316 321 323 327 337 353 4 8 9 12 12
201 198 195 194 193 196 192 188 189 186 185 186 183 184 190 184 184 193 189 192 197 193 190 192 197 195 190 191 191 179 169 175 177 174 173 178 186 185 182 184 185 184 184 185 187 188 188 190 191 188 182 171 167 167 182 196 179 148 137 149 135 157 83 79 83 77 61 59 47 350 8 342 322 323 320 322 331 342 353 5 12 15 13 13 13
202 198 196 197 196 198 196 191 193 189 185 189 187 185 189 184 184 192 190 193 197 194 195 196 198 196 191 194 195 185 173 173 177 172 172 177 182 185 184 186 187 186 185 184 188 189 187 191 193 187 174 170 174 173 188 205 178 154 166 168 151 98 86 91 97 89 71 65 33 339 1 343 336 339 336 347 359 2 5 12 18 16 15 14 17
203 199 197 200 198 199 199 193 195 196 193 191 188 187 190 186 185 192 190 192 197 197 198 200 202 196 192 196 197 192 181 175 176 172 175 176 179 184 184 187 186 187 186 182 189 188 184 187 189 185 174 177 186 188 202 209 173 166 184 176 151 117 103 101 105 98 79 51 16 4 3 348 346 345 351 5 5 10 16 18 20 16 15 19 25
199 197 199 202 200 199 200 196 196 201 202 197 189 186 189 187 187 190 188 191 198 198 200 203 206 198 196 199 198 197 188 180 177 176 178 174 175 181 183 188 185 188 189 184 191 189 183 185 185 184 180 180 187 196 212 207 184 189 200 177 148 122 114 111 108 97 66 42 13 1 0 355 353 349 356 4 6 19 23 21 18 14 15 22 32
198 200 201 205 204 200 200 199 196 199 204 203 195 186 186 188 190 190 187 194 197 197 202 206 207 200 199 201 199 198 193 187 183 180 181 175 176 179 181 188 184 187 191 188 193 189 182 186 186 185 182 180 190 204 214 209 195 198 192 168 149 131 127 126 113 89 58 49 18 357 356 2 2 358 359 3 16 27 27 24 16 11 18 31 36
209 207 207 209 210 205 202 202 198 198 203 205 199 189 187 189 193 192 189 197 196 196 207 206 203 201 201 201 199 199 194 191 189 184 184 181 182 181 180 186 183 187 191 189 192 191 187 189 188 185 185 184 191 205 213 213 202 192 184 168 155 144 136 126 103 90 70 30 9 355 352 5 14 4 7 15 28 27 24 21 11 12 26 36 38
220 214 212 214 218 216 210 206 201 199 205 206 201 192 189 189 195 195 192 199 194 199 211 206 198 202 202 201 199 198 193 191 190 186 185 186 187 184 182 184 184 188 190 190 191 192 191 191 189 186 187 187 188 201 211 205 195 187 179 172 163 150 136 122 105 99 79 6 357 1 359 11 20 7 9 21 26 21 19 12 10 28 34 33 33
225 219 215 212 217 220 216 212 204 199 203 206 204 197 190 191 194 194 195 198 194 201 212 205 200 204 203 200 197 195 192 189 188 187 187 187 186 184 183 184 187 189 188 191 192 192 194 192 191 189 187 186 189 199 199 181 184 182 173 175 170 153 144 131 112 100 92 18 354 358 8 32 32 4 9 22 20 12 2 1 26 40 37 30 28
227 223 217 210 215 218 215 215 214 211 205 199 201 198 192 193 192 193 195 196 196 203 207 201 200 205 204 200 196 193 191 190 187 188 188 186 185 181 180 182 187 190 189 193 196 195 195 192 193 192 188 188 191 197 191 180 177 173 175 182 174 161 158 143 113 82 75 46 357 352 3 36 40 4 359 6 9 4 351 19 51 41 30 25 21
228 225 219 211 217 220 215 212 216 222 216 200 195 196 193 193 192 193 194 194 198 204 203 197 199 204 203 198 196 194 191 190 188 188 189 188 187 182 180 181 184 190 192 195 199 199 195 194 196 193 191 190 193 194 189 181 173 174 184 176 157 166 173 154 124 12 20 35 35 354 359 11 14 5 352 346 351 348 355 46 55 35 25 20 12
229 228 226 218 219 223 220 213 212 221 222 210 195 193 195 195 194 195 194 194 199 204 200 197 201 203 203 198 196 195 192 190 188 188 191 193 192 188 185 181 180 186 191 190 195 196 193 192 191 189 191 190 195 196 188 180 175 180 187 174 166 176 177 172 238 330 359 5 1 172 151 94 8 329 325 328 325 316 349 41 36 23 25 17 7
230 232 232 229 228 226 224 219 212 215 219 215 205 197 196 195 196 196 196 195 199 203 200 202 204 202 202 201 198 195 194 192 188 187 192 196 198 195 189 184 182 182 185 186 187 189 189 186 183 186 190 189 195 196 186 178 178 186 192 187 181 178 184 203 246 313 339 345 332 193 172 168 185 222 301 305 294 301 356 22 23 20 22 14 6
227 230 232 231 231 230 228 222 214 213 214 214 212 207 198 195 198 197 198 197 197 198 200 207 205 201 202 203 202 195 192 191 187 189 192 195 200 199 193 189 188 187 187 187 187 188 188 185 185 189 189 186 190 191 186 182 184 197 202 195 186 179 216 232 241 277 317 333 318 227 197 189 195 198 191 225 267 301 7 6 13 20 16 9 2
228 228 229 230 227 228 230 220 214 215 211 208 208 209 205 198 198 200 199 199 198 196 201 206 202 202 202 203 206 200 194 192 188 193 195 194 199 199 199 196 192 193 193 190 190 192 192 191 192 195 192 187 190 192 191 189 194 204 205 203 196 189 227 242 245 273 306 321 304 246 210 205 209 209 196 198 240 298 340 343 4 15 8 0 0
229 230 229 230 224 224 228 221 212 212 209 205 201 205 208 201 198 202 202 199 199 198 200 202 200 203 203 202 207 204 198 196 191 195 197 197 199 199 203 202 197 200 200 195 193 196 197 200 202 203 199 192 195 196 194 195 201 204 204 212 206 190 225 245 257 279 299 309 295 252 220 217 216 216 201 185 205 264 297 325 359 358 352 355 359
224 226 226 224 215 215 225 224 214 208 208 209 202 199 202 199 199 201 203 201 199 201 203 202 199 203 205 205 207 204 201 201 199 198 198 200 202 202 205 204 202 204 204 199 196 201 205 204 206 210 204 194 194 197 197 203 206 202 202 209 204 204 232 243 255 275 288 296 287 253 229 225 224 223 210 190 197 224 261 322 20 336 329 351 358
225 215 219 216 210 213 221 224 219 210 206 209 204 197 196 197 198 199 203 202 200 201 203 205 202 202 207 208 207 206 204 204 204 202 202 204 205 205 207 207 204 204 205 200 200 206 209 205 205 210 205 196 194 197 203 210 209 207 209 209 205 219 238 247 258 272 281 288 282 251 231 231 234 232 223 213 217 230 248 252 154 257 307 337 352
229 216 220 215 216 220 220 221 221 213 208 210 208 201 198 198 198 198 200 201 199 199 202 205 203 202 207 209 209 207 204 204 204 203 205 207 208 209 209 208 205 203 205 205 207 209 208 204 204 205 205 205 203 198 204 210 209 209 208 207 215 230 240 253 264 272 278 280 269 243 231 231 235 238 238 236 244 252 257 267 258 240 291 328 340
240 235 234 221 219 218 213 217 219 216 211 213 213 207 204 203 202 199 198 200 199 198 202 203 201 202 207 210 209 204 202 204 204 204 207 209 210 211 211 209 205 204 206 206 210 211 206 204 204 202 202 207 207 203 206 205 204 205 197 199 221 240 248 258 264 269 269 264 253 243 238 236 231 234 247 252 256 262 253 245 262 266 272 308 320
251 250 242 227 223 217 209 213 217 217 216 214 215 212 207 207 208 204 196 198 200 199 201 203 202 202 205 209 207 202 201 204 205 206 209 210 211 211 213 211 208 209 209 210 210 207 205 204 205 205 201 200 201 207 215 208 199 194 187 198 207 223 249 259 262 264 263 255 251 248 245 246 239 231 239 246 249 250 245 247 260 274 282 286 292
251 246 233 222 227 221 211 213 216 217 219 217 214 212 208 206 210 212 203 197 199 198 198 202 204 202 204 207 205 201 204 205 205 208 211 212 211 212 215 213 213 215 215 215 211 205 205 205 206 206 201 201 205 212 217 211 202 193 193 208 204 214 241 248 253 261 261 253 253 252 248 249 243 239 237 225 225 230 234 250 266 276 278 287 310
249 243 232 222 227 225 216 215 216 216 217 216 210 207 206 203 204 207 202 196 197 197 198 201 202 201 203 206 203 200 205 207 205 207 210 213 213 214 217 215 216 219 219 219 214 208 208 208 209 210 206 207 213 220 221 216 215 209 207 209 206 231 239 208 211 252 257 248 245 244 249 253 244 241 239 221 221 233 241 254 267 276 283 295 315
248 245 238 228 227 231 224 216 213 213 215 215 209 204 206 205 203 203 198 195 198 198 200 201 201 200 201 204 202 199 203 207 206 208 211 213 214 216 216 217 219 220 220 219 216 212 211 209 210 210 209 210 212 219 224 225 226 221 218 217 218 237 229 168 201 244 249 246 242 232 238 251 247 237 231 220 219 229 242 255 267 279 289 298 309
248 247 239 227 230 238 231 219 216 214 214 213 207 205 209 210 209 208 204 198 198 198 201 203 201 199 200 203 203 201 202 204 205 209 213 214 215 217 217 218 221 221 220 217 214 214 213 210 209 208 208 211 212 217 221 228 233 229 227 230 234 241 234 212 226 239 234 239 240 235 232 236 240 233 221 217 220 224 232 241 255 276 288 295 305
249 248 240 230 233 238 231 225 224 217 213 212 207 207 212 213 210 208 205 201 199 198 200 202 202 199 199 202 203 203 204 203 205 209 215 216 217 219 219 218 219 219 219 216 214 216 214 211 211 210 210 214 218 223 224 227 235 235 236 240 241 244 246 243 241 241 246 242 226 227 232 231 233 230 220 215 218 225 239 246 243 255 276 286 295
248 248 246 240 235 234 234 230 225 217 213 212 209 209 213 215 213 208 203 201 200 199 200 202 203 201 200 201 200 202 205 205 205 209 214 216 218 220 218 217 217 216 216 213 214 216 214 214 215 214 216 220 222 225 224 228 236 237 239 245 244 246 250 249 244 239 247 255 230 212 215 226 235 236 232 225 219 222 241 255 246 234 258 277 285
246 248 249 245 231 227 235 232 223 218 215 213 208 209 213 215 215 213 205 198 198 199 199 203 204 202 203 203 199 201 207 208 206 208 213 214 216 219 218 216 216 214 213 212 211 211 210 213 217 219 222 225 227 226 223 230 238 235 239 250 250 244 241 241 243 238 237 246 248 225 209 219 232 238 243 242 232 226 234 249 252 238 243 262 276
244 247 248 243 225 220 232 230 222 218 214 212 206 207 214 214 214 216 210 198 197 199 199 202 205 204 204 204 201 201 206 210 208 208 211 213 216 219 218 217 217 213 211 212 211 208 206 211 217 222 225 226 227 228 225 230 237 236 242 252 250 241 234 234 240 241 236 234 242 244 223 220 227 229 242 250 240 229 227 239 251 244 239 252 266
Height
1534 1536 1537 1537 1539 1541 1543 1544 1546 1547 1548 1549 1550 1551 1552 1554 1554 1555 1556 1556 1557 1557 1557 1558 1558 1558 1559 1559 1559 1560 1560 1561 1561 1562 1562 1562 1563 1563 1564 1565 1566 1566 1567 1568 1568 1569 1570 1570 1571 1571 1572 1573 1574 1574 1574 1575 1575 1575 1576 1576 1576 1576 1576 1576 1576 1576 1576 1576 1575 1575 1575 1574 1574 1573 1573 1573 1572 1571 1571 1570 1571 1571 1570 1568 1568
1532 1535 1536 1537 1538 1540 1542 1544 1546 1547 1548 1549 1550 1552 1553 1554 1554 1555 1556 1556 1557 1557 1558 1558 1559 1559 1559 1559 1560 1560 1560 1561 1561 1562 1562 1562 1563 1563 1564 1565 1566 1567 1568 1568 1569 1569 1570 1571 1571 1572 1573 1574 1574 1575 1575 1575 1576 1577 1577 1577 1577 1577 1577 1577 1577 1577 1577 1577 1576 1576 1576 1575 1575 1574 1574 1573 1573 1573 1572 1572 1571 1572 1571 1569 1568
1532 1534 1535 1537 1538 1540 1542 1543 1545 1546 1548 1549 1550 1552 1553 1554 1554 1555 1556 1556 1557 1557 1558 1558 1559 1559 1559 1559 1560 1560 1560 1561 1561 1561 1562 1562 1562 1563 1564 1565 1566 1567 1568 1569 1569 1570 1571 1571 1572 1573 1574 1574 1575 1575 1576 1576 1577 1577 1578 1578 1578 1578 1578 1578 1578 1578 1578 1578 1577 1577 1577 1576 1576 1575 1574 1574 1574 1573 1573 1573 1572 1572 1571 1570 1569
1532 1533 1535 1536 1538 1539 1541 1543 1545 1546 1548 1549 1550 1552 1553 1554 1555 1555 1556 1557 1557 1558 1558 1559 1559 1559 1559 1559 1559 1560 1560 1561 1561 1561 1562 1562 1563 1563 1564 1565 1566 1567 1568 1569 1569 1570 1571 1572 1573 1574 1574 1575 1576 1576 1577 1577 1578 1578 1579 1579 1579 1579 1579 1579 1579 1579 1579 1578 1577 1577 1578 1577 1576 1576 1575 1575 1574 1574 1574 1573 1573 1572 1571 1570 1570
1533 1533 1534 1535 1537 1539 1541 1542 1544 1546 1547 1549 1550 1552 1553 1554 1555 1556 1556 1557 1557 1558 1559 1559 1559 1559 1559 1559 1559 1560 1560 1561 1562 1562 1562 1563 1563 1564 1564 1565 1566 1567 1568 1569 1570 1571 1572 1572 1573 1574 1575 1576 1576 1577 1577 1578 1579 1579 1579 1580 1580 1580 1580 1580 1580 1580 1580 1579 1578 1580 1581 1579 1578 1577 1576 1575 1575 1575 1574 1574 1573 1572 1572 1571 1570
1532 1533 1534 1535 1537 1538 1540 1542 1544 1545 1547 1548 1550 1551 1553 1554 1555 1556 1556 1557 1558 1558 1559 1559 1559 1560 1559 1559 1560 1560 1561 1561 1562 1562 1563 1563 1564 1565 1565 1566 1566 1567 1568 1569 1570 1571 1572 1573 1574 1575 1575 1576 1577 1578 1578 1579 1580 1580 1580 1580 1580 1581 1581 1581 1581 1581 1580 1579 1580 1582 1583 1582 1579 1578 1577 1576 1576 1575 1575 1574 1574 1573 1573 1572 1571
1533 1533 1534 1535 1536 1538 1540 1541 1543 1545 1546 1548 1549 1551 1553 1554 1555 1555 1556 1557 1558 1559 1559 1559 1560 1560 1560 1560 1560 1560 1561 1561 1562 1562 1563 1564 1564 1565 1566 1566 1567 1567 1568 1569 1570 1571 1572 1573 1574 1575 1576 1577 1578 1579 1579 1580 1580 1581 1581 1581 1581 1581 1581 1581 1581 1582 1580 1580 1583 1584 1584 1583 1581 1579 1578 1577 1577 1576 1576 1575 1575 1574 1574 1573 1572
1532 1534 1534 1535 1536 1537 1539 1541 1542 1544 1546 1547 1549 1551 1552 1554 1554 1555 1556 1557 1558 1558 1559 1559 1560 1560 1560 1560 1560 1561 1561 1562 1562 1563 1564 1564 1565 1565 1566 1566 1567 1568 1568 1569 1570 1571 1572 1574 1575 1576 1577 1578 1579 1580 1580 1581 1581 1581 1582 1582 1582 1582 1582 1582 1582 1582 1581 1582 1584 1584 1584 1584 1582 1580 1579 1578 1578 1577 1577 1576 1575 1575 1575 1574 1573
1531 1533 1534 1535 1536 1537 1539 1540 1542 1544 1545 1547 1549 1551 1552 1553 1554 1555 1556 1557 1558 1558 1559 1559 1560 1560 1561 1561 1561 1561 1562 1562 1563 1564 1564 1565 1565 1566 1566 1567 1567 1568 1568 1569 1570 1572 1573 1574 1575 1576 1577 1578 1579 1580 1581 1581 1582 1582 1582 1582 1583 1583 1583 1583 1583 1582 1582 1584 1584 1584 1583 1583 1582 1580 1580 1579 1578 1578 1577 1577 1577 1576 1575 1575 1574
1530 1532 1534 1535 1536 1537 1538 1540 1542 1544 1545 1547 1549 1550 1552 1553 1554 1555 1556 1557 1557 1558 1559 1559 1560 1560 1561 1561 1561 1561 1562 1563 1563 1564 1564 1565 1566 1566 1566 1567 1568 1568 1569 1570 1571 1572 1573 1575 1576 1577 1578 1579 1580 1581 1582 1582 1582 1583 1583 1583 1583 1583 1583 1584 1583 1583 1584 1586 1585 1584 1583 1583 1582 1581 1580 1579 1579 1579 1578 1578 1578 1577 1576 1575 1575
1530 1532 1534 1535 1536 1537 1538 1540 1541 1543 1545 1547 1549 1550 1552 1553 1554 1555 1556 1556 1558 1559 1559 1560 1560 1560 1561 1561 1562 1562 1562 1563 1564 1564 1565 1565 1565 1565 1566 1567 1568 1568 1569 1570 1571 1573 1574 1575 1577 1578 1579 1580 1581 1581 1582 1583 1583 1583 1584 1584 1584 1584 1584 1584 1584 1585 1586 1586 1585 1584 1583 1583 1582 1581 1581 1580 1579 1579 1579 1578 1578 1577 1576 1576 1575
1529 1531 1533 1534 1536 1537 1538 1540 1541 1543 1545 1546 1548 1550 1551 1553 1554 1555 1556 1556 1558 1559 1560 1560 1560 1560 1561 1561 1562 1562 1563 1563 1564 1564 1565 1565 1565 1566 1566 1567 1567 1568 1569 1570 1572 1573 1574 1576 1577 1578 1579 1580 1581 1582 1583 1583 1583 1584 1584 1584 1585 1585 1585 1584 1585 1586 1587 1586 1586 1585 1585 1583 1582 1582 1581 1580 1580 1579 1579 1579 1578 1578 1577 1576 1576
1528 1530 1532 1534 1535 1537 1539 1540 1542 1543 1544 1546 1548 1550 1551 1552 1554 1555 1556 1557 1558 1559 1560 1560 1560 1561 1561 1561 1562 1563 1563 1564 1564 1565 1565 1566 1566 1566 1567 1567 1567 1568 1569 1571 1572 1573 1575 1577 1578 1579 1580 1581 1582 1582 1583 1583 1584 1584 1584 1585 1585 1585 1585 1585 1586 1587 1587 1586 1586 1586 1585 1583 1582 1582 1581 1581 1581 1580 1580 1579 1579 1578 1578 1577 1577
1528 1529 1532 1534 1535 1537 1539 1540 1542 1543 1545 1546 1547 1549 1551 1552 1554 1555 1556 1556 1557 1559 1560 1560 1561 1561 1561 1562 1563 1563 1564 1564 1565 1565 1566 1566 1566 1567 1567 1567 1568 1569 1570 1571 1573 1574 1576 1577 1579 1580 1580 1581 1582 1583 1583 1584 1584 1584 1585 1585 1585 1586 1586 1585 1587 1587 1586 1586 1586 1586 1585 1583 1583 1582 1581 1581 1581 1581 1580 1580 1579 1579 1578 1578 1577
1528 1530 1532 1534 1535 1536 1538 1540 1542 1544 1545 1546 1547 1549 1551 1552 1553 1555 1556 1556 1557 1558 1559 1560 1561 1561 1562 1562 1563 1563 1564 1565 1565 1566 1566 1567 1567 1567 1568 1568 1569 1569 1571 1572 1573 1575 1576 1578 1579 1580 1581 1582 1583 1583 1584 1584 1584 1585 1585 1585 1586 1586 1586 1586 1588 1587 1586 1586 1586 1585 1584 1583 1583 1582 1582 1582 1581 1581 1580 1580 1579 1579 1578 1578 1577
1528 1530 1531 1532 1534 1536 1538 1540 1542 1544 1545 1546 1547 1549 1551 1552 1553 1554 1556 1556 1557 1558 1559 1560 1561 1562 1562 1563 1563 1564 1564 1565 1566 1566 1567 1567 1567 1568 1568 1569 1569 1570 1571 1573 1574 1575 1577 1578 1579 1580 1581 1582 1583 1584 1584 1584 1585 1585 1585 1586 1586 1586 1586 1587 1588 1587 1586 1586 1586 1585 1583 1583 1583 1582 1582 1582 1582 1581 1581 1580 1580 1579 1578 1578 1577
1527 1529 1530 1532 1534 1536 1538 1540 1542 1543 1545 1546 1547 1549 1551 1552 1553 1554 1555 1556 1557 1558 1559 1560 1561 1562 1562 1563 1563 1564 1564 1565 1566 1567 1568 1568 1568 1568 1569 1569 1570 1571 1572 1573 1574 1576 1577 1579 1580 1581 1581 1582 1583 1584 1584 1585 1585 1585 1586 1586 1586 1587 1587 1587 1588 1587 1586 1586 1587 1585 1583 1583 1583 1583 1583 1582 1582 1581 1581 1581 1580 1579 1579 1578 1576
1526 1527 1529 1531 1533 1535 1537 1539 1541 1543 1544 1546 1547 1549 1550 1552 1553 1554 1555 1556 1557 1558 1559 1560 1561 1562 1562 1563 1563 1564 1565 1565 1566 1567 1568 1568 1568 1568 1569 1570 1570 1571 1573 1574 1575 1576 1578 1579 1580 1581 1582 1582 1583 1584 1585 1585 1585 1586 1586 1586 1586 1587 1587 1587 1587 1587 1586 1586 1586 1585 1584 1584 1583 1583 1583 1583 1582 1582 1581 1581 1580 1579 1578 1578 1576
1527 1528 1529 1531 1533 1535 1537 1538 1540 1542 1543 1545 1547 1548 1550 1551 1553 1554 1555 1556 1557 1558 1559 1560 1561 1562 1562 1563 1564 1564 1565 1566 1567 1567 1568 1568 1568 1569 1570 1570 1571 1572 1573 1574 1576 1577 1578 1579 1580 1581 1582 1583 1583 1584 1585 1585 1585 1586 1586 1586 1587 1587 1587 1587 1587 1587 1586 1585 1585 1585 1584 1584 1583 1583 1583 1583 1583 1582 1582 1581 1580 1579 1578 1577 1576
1527 1529 1530 1531 1533 1536 1537 1538 1540 1541 1543 1544 1546 1547 1549 1551 1552 1554 1555 1556 1557 1558 1559 1560 1561 1562 1562 1563 1564 1564 1565 1566 1567 1568 1568 1568 1569 1569 1570 1571 1571 1572 1573 1574 1576 1577 1578 1580 1581 1581 1582 1583 1583 1584 1585 1585 1586 1586 1586 1587 1587 1587 1587 1587 1587 1586 1585 1586 1586 1585 1585 1584 1584 1584 1583 1583 1583 1582 1582 1581 1580 1579 1578 1578 1577
1524 1527 1529 1530 1534 1536 1537 1538 1540 1542 1543 1544 1545 1547 1548 1550 1552 1553 1555 1556 1557 1558 1559 1560 1561 1561 1562 1563 1564 1564 1565 1566 1567 1568 1569 1569 1569 1569 1570 1571 1572 1573 1574 1575 1576 1577 1579 1580 1581 1582 1582 1583 1584 1584 1585 1585 1586 1586 1587 1587 1587 1587 1587 1587 1587 1586 1585 1586 1586 1586 1585 1585 1584 1584 1583 1583 1583 1582 1581 1581 1580 1579 1578 1578 1577
1522 1525 1527 1528 1531 1534 1536 1537 1539 1541 1543 1544 1545 1546 1548 1550 1552 1553 1555 1556 1557 1558 1559 1560 1561 1561 1562 1563 1563 1564 1565 1565 1567 1568 1569 1570 1570 1569 1570 1571 1572 1573 1574 1575 1576 1577 1579 1580 1581 1582 1583 1584 1584 1585 1585 1586 1586 1586 1587 1587 1587 1588 1587 1586 1587 1586 1585 1585 1585 1585 1585 1585 1584 1584 1583 1583 1583 1582 1581 1581 1580 1579 1578 1578 1577
1520 1522 1524 1526 1529 1531 1533 1536 1538 1540 1542 1544 1544 1546 1547 1549 1552 1553 1554 1556 1557 1558 1559 1560 1561 1561 1561 1562 1563 1563 1565 1566 1567 1568 1569 1570 1570 1570 1570 1571 1572 1573 1574 1575 1576 1577 1579 1580 1581 1582 1583 1584 1585 1586 1586 1586 1587 1587 1587 1588 1588 1587 1587 1586 1587 1587 1585 1584 1585 1585 1585 1585 1584 1584 1583 1583 1583 1582 1581 1581 1580 1579 1579 1578 1578
1518 1520 1523 1525 1526 1528 1530 1533 1535 1538 1540 1542 1544 1545 1547 1549 1551 1553 1554 1555 1557 1558 1559 1560 1562 1561 1561 1561 1562 1563 1564 1565 1566 1567 1568 1569 1570 1570 1570 1571 1572 1573 1574 1575 1576 1577 1579 1580 1581 1582 1583 1584 1586 1586 1586 1586 1587 1587 1587 1588 1588 1587 1587 1587 1588 1588 1586 1585 1585 1585 1585 1584 1584 1583 1583 1583 1582 1582 1581 1581 1580 1580 1579 1579 1578
1517 1519 1521 1523 1524 1526 1528 1531 1533 1536 1538 1540 1542 1544 1545 1548 1550 1552 1553 1555 1556 1557 1558 1560 1561 1560 1560 1560 1561 1562 1563 1565 1565 1565 1568 1569 1570 1570 1570 1571 1572 1573 1574 1576 1577 1578 1579 1580 1581 1582 1584 1585 1586 1586 1586 1586 1587 1587 1587 1588 1588 1587 1587 1588 1588 1588 1587 1586 1585 1585 1584 1584 1583 1583 1583 1583 1582 1582 1581 1581 1580 1580 1580 1579 1579
1517 1519 1519 1520 1523 1524 1526 1529 1531 1533 1536 1538 1540 1543 1544 1547 1550 1551 1552 1554 1555 1556 1557 1559 1559 1559 1558 1559 1560 1561 1562 1564 1564 1565 1567 1568 1569 1570 1571 1571 1572 1573 1574 1576 1577 1578 1579 1580 1581 1582 1584 1585 1585 1585 1585 1586 1586 1587 1587 1587 1587 1587 1588 1588 1588 1588 1587 1586 1585 1585 1584 1584 1583 1583 1582 1582 1582 1582 1581 1581 1580 1580 1580 1580 1579
1516 1518 1518 1519 1521 1522 1524 1526 1529 1531 1534 1536 1539 1541 1543 1546 1548 1549 1551 1553 1554 1555 1556 1557 1557 1557 1557 1558 1559 1560 1561 1563 1563 1564 1565 1567 1569 1570 1571 1571 1572 1573 1574 1576 1577 1578 1579 1581 1582 1582 1583 1584 1585 1584 1585 1585 1586 1586 1587 1587 1587 1587 1588 1589 1588 1588 1587 1586 1584 1584 1584 1584 1583 1583 1582 1582 1582 1582 1581 1581 1581 1581 1580 1580 1579
1514 1516 1517 1517 1519 1520 1522 1524 1527 1529 1531 1534 1537 1539 1542 1544 1547 1548 1550 1552 1553 1554 1555 1556 1555 1555 1556 1557 1558 1560 1561 1562 1563 1563 1564 1565 1567 1569 1570 1571 1571 1573 1574 1575 1577 1577 1579 1580 1581 1582 1583 1584 1584 1584 1585 1585 1586 1586 1586 1587 1587 1587 1588 1588 1588 1587 1587 1586 1585 1584 1584 1583 1583 1583 1582 1582 1582 1581 1581 1581 1581 1581 1580 1579 1578
1510 1513 1515 1516 1517 1518 1521 1523 1525 1527 1529 1532 1534 1537 1540 1542 1545 1546 1548 1550 1551 1553 1554 1554 1554 1553 1555 1556 1558 1559 1560 1561 1562 1563 1563 1564 1565 1566 1568 1569 1570 1572 1573 1574 1576 1576 1578 1579 1580 1581 1582 1583 1584 1584 1584 1585 1585 1586 1586 1586 1587 1587 1587 1587 1588 1588 1587 1586 1585 1584 1583 1583 1583 1583 1582 1582 1582 1581 1581 1581 1581 1581 1580 1579 1578
1508 1510 1512 1514 1516 1517 1519 1521 1524 1526 1528 1530 1532 1535 1538 1540 1543 1545 1546 1548 1550 1551 1552 1552 1552 1553 1554 1556 1557 1558 1559 1560 1561 1562 1563 1563 1564 1565 1566 1567 1569 1570 1572 1573 1574 1576 1577 1578 1579 1581 1582 1583 1583 1583 1584 1585 1585 1586 1586 1586 1586 1586 1587 1587 1588 1588 1587 1585 1585 1584 1583 1583 1582 1582 1582 1582 1582 1582 1581 1581 1581 1581 1579 1579 1578
1506 1508 1510 1512 1514 1516 1518 1520 1522 1524 1526 1528 1530 1533 1536 1538 1541 1543 1545 1546 1548 1549 1550 1550 1551 1552 1553 1555 1556 1557 1558 1559 1560 1561 1562 1563 1564 1564 1565 1566 1568 1569 1571 1572 1574 1575 1577 1578 1579 1580 1581 1582 1583 1583 1584 1585 1585 1585 1585 1585 1585 1586 1586 1587 1587 1587 1587 1585 1584 1583 1583 1582 1582 1582 1582 1582 1582 1582 1582 1581 1581 1580 1579 1579 1578
1504 1506 1508 1510 1511 1514 1516 1519 1521 1522 1524 1526 1529 1531 1534 1537 1539 1541 1543 1544 1546 1547 1548 1549 1549 1551 1552 1554 1555 1556 1557 1558 1559 1561 1561 1562 1563 1564 1565 1566 1567 1569 1570 1572 1573 1575 1576 1577 1578 1579 1580 1581 1582 1582 1583 1584 1585 1585 1585 1585 1585 1586 1586 1586 1586 1586 1586 1585 1584 1583 1582 1582 1582 1582 1582 1582 1582 1582 1582 1581 1581 1580 1579 1579 1578
1502 1504 1507 1508 1510 1512 1515 1518 1520 1521 1523 1526 1528 1530 1533 1535 1537 1539 1541 1542 1544 1545 1547 1548 1548 1550 1551 1552 1554 1555 1556 1557 1558 1560 1561 1562 1563 1564 1565 1566 1567 1568 1570 1571 1573 1574 1575 1576 1577 1578 1579 1580 1581 1581 1582 1583 1584 1584 1584 1584 1585 1585 1585 1586 1586 1585 1585 1585 1584 1583 1583 1582 1582 1582 1582 1582 1582 1582 1582 1581 1580 1580 1580 1579 1578
1501 1503 1505 1507 1509 1512 1514 1516 1518 1519 1521 1524 1527 1529 1531 1534 1536 1537 1539 1541 1542 1543 1545 1546 1547 1548 1550 1551 1553 1554 1555 1556 1558 1559 1560 1561 1562 1563 1564 1565 1566 1567 1569 1570 1572 1573 1574 1575 1576 1577 1578 1579 1579 1580 1581 1582 1582 1583 1583 1584 1585 1585 1585 1585 1585 1585 1585 1584 1584 1584 1584 1583 1583 1582 1582 1582 1582 1582 1582 1581 1580 1580 1580 1579 1579
1500 1501 1503 1506 1508 1510 1512 1514 1515 1517 1519 1522 1525 1528 1530 1533 1535 1536 1537 1539 1540 1542 1543 1544 1546 1547 1549 1550 1552 1553 1554 1555 1557 1559 1560 1561 1562 1562 1563 1565 1566 1567 1569 1570 1572 1573 1574 1574 1575 1576 1577 1578 1578 1579 1580 1581 1581 1582 1582 1583 1583 1584 1584 1584 1584 1584 1584 1584 1584 1584 1584 1584 1583 1583 1582 1582 1582 1582 1581 1581 1581 1580 1580 1580 1579
1499 1500 1501 1504 1506 1509 1511 1512 1514 1515 1517 1520 1522 1526 1529 1531 1533 1534 1536 1537 1539 1540 1541 1542 1544 1546 1548 1549 1550 1552 1553 1554 1556 1558 1559 1560 1561 1562 1563 1564 1565 1566 1568 1569 1571 1572 1573 1573 1574 1575 1576 1577 1578 1578 1579 1580 1580 1581 1581 1582 1582 1583 1583 1583 1583 1584 1583 1583 1583 1583 1583 1583 1583 1583 1583 1583 1582 1581 1581 1581 1581 1580 1580 1580 1579
1498 1499 1500 1502 1504 1506 1508 1511 1513 1514 1516 1518 1520 1523 1526 1529 1531 1533 1534 1536 1537 1539 1540 1541 1543 1545 1547 1548 1549 1550 1552 1553 1555 1557 1559 1560 1561 1562 1562 1563 1564 1566 1566 1568 1570 1571 1572 1572 1573 1574 1575 1577 1578 1578 1578 1578 1579 1580 1580 1581 1581 1582 1583 1583 1583 1583 1583 1582 1582 1582 1582 1582 1582 1582 1583 1583 1582 1581 1581 1581 1581 1580 1580 1580 1579
1496 1498 1499 1500 1502 1504 1506 1509 1511 1513 1514 1516 1519 1521 1523 1526 1529 1531 1532 1534 1536 1537 1538 1540 1542 1543 1545 1547 1548 1549 1551 1552 1554 1556 1557 1559 1560 1561 1561 1562 1563 1564 1565 1567 1569 1570 1570 1571 1572 1573 1574 1576 1578 1577 1577 1577 1578 1579 1579 1580 1580 1581 1582 1582 1582 1582 1582 1582 1582 1582 1582 1582 1582 1582 1582 1582 1582 1581 1581 1581 1580 1580 1580 1580 1579
1493 1495 1496 1497 1500 1502 1503 1506 1509 1511 1513 1514 1517 1519 1521 1523 1527 1529 1530 1531 1533 1535 1536 1538 1540 1542 1544 1545 1546 1548 1550 1551 1553 1555 1556 1558 1559 1559 1560 1561 1563 1563 1564 1566 1568 1568 1569 1570 1571 1571 1573 1575 1576 1576 1576 1576 1577 1578 1578 1579 1579 1580 1580 1581 1581 1581 1581 1581 1581 1581 1581 1581 1581 1581 1581 1581 1581 1581 1580 1580 1580 1580 1580 1580 1579
1489 1492 1494 1495 1497 1499 1501 1503 1507 1509 1511 1512 1514 1517 1519 1520 1523 1526 1527 1529 1530 1532 1533 1536 1538 1540 1542 1543 1545 1547 1549 1550 1552 1554 1555 1556 1557 1558 1559 1560 1561 1562 1564 1565 1566 1567 1567 1569 1569 1570 1572 1573 1574 1574 1575 1576 1577 1577 1577 1578 1579 1579 1579 1580 1580 1580 1580 1580 1580 1580 1581 1581 1581 1580 1580 1580 1580 1580 1580 1580 1581 1581 1580 1579 1579
1485 1488 1490 1492 1493 1495 1498 1501 1504 1507 1508 1509 1510 1513 1515 1517 1519 1522 1524 1526 1528 1530 1531 1534 1537 1539 1540 1541 1543 1545 1547 1549 1551 1553 1554 1555 1556 1557 1558 1559 1560 1562 1563 1564 1565 1565 1566 1568 1569 1570 1571 1572 1573 1573 1574 1575 1576 1576 1577 1577 1577 1578 1578 1579 1579 1579 1579 1579 1579 1579 1580 1580 1580 1580 1580 1580 1580 1580 1580 1580 1580 1580 1580 1579 1578
1481 1483 1485 1489 1491 1493 1496 1498 1500 1503 1505 1506 1507 1509 1512 1514 1516 1519 1522 1524 1526 1528 1530 1532 1535 1537 1538 1540 1542 1544 1546 1548 1550 1551 1553 1554 1555 1556 1557 1558 1559 1560 1561 1562 1563 1564 1565 1566 1567 1568 1570 1571 1572 1572 1573 1574 1575 1575 1576 1577 1577 1577 1577 1578 1578 1578 1578 1578 1578 1578 1579 1579 1579 1579 1579 1579 1579 1579 1579 1579 1579 1579 1579 1579 1579
1479 1480 1482 1485 1488 1491 1495 1496 1497 1499 1502 1503 1504 1506 1509 1511 1514 1517 1520 1523 1524 1526 1528 1531 1533 1535 1536 1538 1540 1542 1544 1546 1548 1550 1551 1553 1554 1555 1556 1557 1558 1559 1560 1561 1562 1563 1564 1565 1566 1567 1568 1570 1570 1571 1572 1573 1574 1575 1576 1577 1577 1577 1577 1576 1577 1577 1577 1577 1577 1577 1578 1578 1578 1578 1578 1579 1579 1579 1579 1578 1578 1578 1578 1578 1578
1477 1478 1481 1482 1484 1488 1491 1493 1495 1496 1499 1500 1502 1504 1507 1510 1512 1515 1518 1521 1523 1525 1527 1529 1531 1533 1534 1536 1538 1540 1542 1544 1547 1548 1550 1551 1552 1553 1554 1555 1556 1557 1558 1560 1561 1561 1562 1564 1565 1566 1567 1568 1569 1569 1570 1572 1573 1574 1576 1576 1576 1577 1576 1575 1575 1576 1576 1576 1576 1576 1576 1577 1577 1577 1577 1578 1578 1578 1578 1578 1577 1577 1577 1577 1577
1474 1476 1479 1480 1481 1484 1488 1491 1492 1494 1496 1498 1500 1502 1504 1507 1510 1512 1515 1519 1521 1522 1524 1527 1528 1530 1532 1534 1536 1538 1540 1542 1545 1546 1548 1550 1551 1552 1553 1554 1555 1556 1557 1559 1559 1560 1561 1562 1564 1564 1565 1566 1567 1568 1569 1570 1572 1573 1574 1575 1575 1575 1574 1574 1575 1575 1575 1576 1576 1576 1575 1575 1576 1576 1576 1577 1578 1577 1577 1576 1576 1576 1576 1576 1576
1471 1473 1476 1478 1480 1483 1486 1488 1490 1491 1493 1495 1497 1500 1501 1504 1506 1508 1511 1514 1516 1518 1521 1523 1525 1528 1530 1532 1535 1537 1538 1541 1543 1545 1546 1548 1549 1550 1552 1553 1554 1555 1556 1557 1558 1559 1560 1561 1563 1563 1564 1565 1566 1567 1568 1569 1570 1571 1572 1573 1573 1573 1573 1573 1575 1575 1575 1575 1575 1575 1575 1574 1574 1575 1575 1577 1577 1576 1576 1575 1575 1575 1575 1575 1575
1468 1471 1473 1475 1477 1480 1483 1485 1487 1489 1490 1492 1494 1497 1498 1500 1502 1505 1508 1510 1513 1516 1519 1522 1524 1526 1529 1531 1533 1535 1537 1539 1541 1543 1544 1546 1548 1549 1550 1552 1552 1554 1555 1556 1557 1558 1559 1560 1561 1562 1563 1564 1565 1565 1566 1567 1568 1569 1570 1571 1571 1572 1572 1573 1574 1574 1574 1574 1573 1574 1574 1573 1573 1574 1575 1576 1576 1575 1575 1574 1574 1574 1573 1573 1573
1466 1468 1469 1471 1473 1477 1480 1482 1484 1486 1487 1489 1491 1494 1495 1497 1500 1503 1506 1509 1511 1514 1517 1520 1522 1525 1527 1529 1531 1533 1535 1537 1539 1541 1543 1544 1546 1547 1549 1550 1551 1553 1554 1555 1556 1557 1558 1559 1560 1561 1562 1562 1563 1564 1565 1565 1566 1567 1568 1569 1570 1570 1571 1571 1572 1573 1573 1572 1572 1572 1572 1572 1572 1572 1573 1574 1575 1574 1573 1573 1574 1573 1572 1572 1572
1464 1464 1465 1467 1470 1473 1476 1479 1481 1483 1484 1486 1488 1491 1493 1495 1497 1500 1504 1507 1510 1513 1515 1518 1520 1523 1525 1526 1529 1531 1532 1535 1537 1539 1541 1543 1544 1546 1547 1549 1550 1552 1553 1554 1555 1555 1556 1557 1558 1559 1560 1561 1562 1563 1564 1564 1565 1566 1566 1567 1568 1569 1570 1570 1570 1571 1571 1571 1570 1570 1570 1570 1570 1570 1571 1572 1573 1572 1571 1571 1572 1573 1571 1571 1571
1460 1461 1462 1464 1467 1469 1472 1475 1478 1480 1482 1484 1486 1488 1491 1493 1495 1497 1500 1504 1507 1510 1513 1515 1518 1520 1522 1524 1526 1528 1530 1532 1534 1536 1539 1541 1542 1544 1546 1547 1549 1551 1552 1553 1553 1553 1555 1556 1557 1558 1558 1559 1560 1561 1562 1563 1564 1565 1565 1566 1567 1567 1569 1569 1569 1569 1570 1569 1569 1569 1569 1568 1568 1568 1568 1569 1570 1571 1570 1569 1570 1571 1571 1570 1570
1457 1458 1459 1460 1464 1466 1468 1472 1476 1478 1480 1482 1484 1486 1488 1491 1493 1495 1498 1502 1505 1507 1509 1512 1515 1517 1520 1522 1524 1526 1528 1530 1532 1534 1536 1539 1540 1542 1544 1546 1547 1549 1550 1550 1550 1551 1553 1554 1555 1556 1557 1558 1559 1560 1561 1562 1562 1563 1564 1564 1565 1566 1567 1568 1568 1568 1568 1568 1568 1568 1568 1567 1567 1567 1566 1566 1568 1569 1569 1568 1568 1569 1569 1568 1568